User: anonymous   Login
Location: Unspecified
(0.0000°N, 0.0000°E)
Time: 19:58:05
(UTC+00:00)
Language:

GONETS M 09 (M19) - Orbit

View from above orbital plane
View from above orbital plane
View from above satellite
View from above satellite

Ground track
Ground track

The orbit data is extracted from the following two-line orbital elements,

1 40062U 14036B   18171.68168081 -.00000010  00000-0 -14519-3 0  9998
2 40062  82.5081 320.2458 0022580  41.6091 318.6702 12.42891115179895
Epoch (UTC): 20 June 2018 16:21:37
Eccentricity: 0.0022580
inclination: 82.5081°
perigee height: 1476 km
apogee height: 1512 km
right ascension of ascending node: 320.2458°
argument of perigee: 41.6091°
revolutions per day: 12.42891115
mean anomaly at epoch: 318.6702°
orbit number at epoch: 17989

The dashed part of the orbit path shows where the satellite is in the earth's shadow,  

DLR